Charlottesville, VA

4:10 PM EDT on June 26, 2017 (GMT -0400)
Charlottesville-Albemarle

Weather History for KCHO - November, 2011

Change the Weather History Date:

Saturday, November 5, 2011

  Actual Average Record
Temperature  
Mean Temperature 42 °F 50 °F  
Max Temperature 53 °F 62 °F 83 °F (1974)
Min Temperature 31 °F 39 °F 20 °F (1991)
Degree Days  
Heating Degree Days 23 15  
Month to date heating degree days 87 71  
Since 1 July heating degree days 362 420  
Cooling Degree Days 0 0  
Month to date cooling degree days 0 0  
Year to date cooling degree days 1603 1034  
Moisture  
Dew Point 25 °F    
Average Humidity 60    
Maximum Humidity 85    
Minimum Humidity 35    
Precipitation  
Precipitation 0.00 in 0.15 in 1.13 in (2003)
Month to date precipitation T 0.67  
Year to date precipitation 40.81 36.40  
Sea Level Pressure  
Sea Level Pressure 30.39 in    
Wind  
Wind Speed 5 mph (NE)    
Max Wind Speed 12 mph    
Max Gust Speed 18 mph    
Visibility 10 miles    
Events      
T = Trace of Precipitation, MM = Missing Value Source: NWS Daily Summary

Daily Weather History Graph

Daily Weather History Graph

Search for Another Location

Airport or City:

Trip Planner

Search our weather history database for the weather conditions in past years. The results will help you decide how hot, cold, wet, or windy it might be!

Date:

Astronomy

Nov. 05, 2011 Rise Set
Actual Time 7:43 AM EDT 6:10 PM EDT
Civil Twilight 7:16 AM EDT 6:38 PM EDT
Nautical Twilight 6:44 AM EDT 7:09 PM EDT
Astronomical Twilight 6:13 AM EDT 7:40 PM EDT
Moon 3:24 PM EDT (11/5) 2:55 AM EDT (11/5)
Length of Visible Light 11h 21m
Length of Day
10h 26m
Waxing Gibbous, 78% of the Moon is Illuminated
Nov 5
Waxing Gibbous
Nov 10
Full
Nov 18
Last Quarter
Nov 25
New
Dec 2
First Quarter

Hourly Weather History & Observations

Time (EDT) Temp. Windchill Dew Point Humidity Pressure Visibility Wind Dir Wind Speed Gust Speed Precip Events Conditions
12:53 AM 44.1 °F 40.8 °F 24.1 °F 45% 30.25 in 10.0 mi Variable 5.8 mph - N/A   Clear
1:53 AM 43.0 °F 39.5 °F 24.1 °F 47% 30.25 in 10.0 mi North 5.8 mph - N/A   Clear
2:53 AM 41.0 °F 38.0 °F 24.8 °F 53% 30.26 in 10.0 mi Variable 4.6 mph - N/A   Clear
3:53 AM 39.9 °F 36.7 °F 24.1 °F 53% 30.27 in 10.0 mi NNE 4.6 mph - N/A   Clear
4:53 AM 39.0 °F 35.7 °F 24.1 °F 55% 30.28 in 10.0 mi Variable 4.6 mph - N/A   Clear
5:53 AM 39.0 °F 31.8 °F 24.1 °F 55% 30.31 in 10.0 mi NE 11.5 mph - N/A   Clear
6:53 AM 37.9 °F 30.5 °F 24.1 °F 57% 30.34 in 10.0 mi NE 11.5 mph - N/A   Clear
7:53 AM 37.4 °F 29.8 °F 24.8 °F 60% 30.37 in 10.0 mi NE 11.5 mph - N/A   Clear
8:53 AM 39.9 °F 32.9 °F 24.1 °F 53% 30.42 in 10.0 mi NE 11.5 mph - N/A   Clear
9:53 AM 43.0 °F 36.8 °F 25.0 °F 49% 30.43 in 10.0 mi NE 11.5 mph - N/A   Clear
10:53 AM 46.0 °F 41.9 °F 25.0 °F 44% 30.45 in 10.0 mi North 8.1 mph - N/A   Clear
11:53 AM 48.2 °F - 24.8 °F 40% 30.45 in 10.0 mi NE 5.8 mph - N/A   Clear
12:53 PM 48.9 °F - 24.1 °F 38% 30.43 in 10.0 mi NNE 10.4 mph - N/A   Clear
1:53 PM 50.0 °F - 25.0 °F 38% 30.42 in 10.0 mi East 5.8 mph - N/A   Clear
2:53 PM 50.0 °F - 24.1 °F 36% 30.41 in 10.0 mi East 8.1 mph - N/A   Clear
3:53 PM 52.0 °F - 25.0 °F 35% 30.41 in 10.0 mi Variable 5.8 mph - N/A   Clear
4:53 PM 51.1 °F - 25.0 °F 36% 30.42 in 10.0 mi ENE 3.5 mph - N/A   Clear
5:53 PM 46.9 °F - 25.0 °F 42% 30.42 in 10.0 mi ENE 3.5 mph - N/A   Clear
6:53 PM 42.1 °F - 25.0 °F 51% 30.43 in 10.0 mi Calm Calm - N/A   Clear
7:53 PM 39.0 °F - 26.1 °F 60% 30.44 in 10.0 mi Calm Calm - N/A   Clear
8:53 PM 34.0 °F - 27.0 °F 75% 30.45 in 10.0 mi Calm Calm - N/A   Clear
9:53 PM 36.0 °F - 26.1 °F 67% 30.47 in 10.0 mi Calm Calm - N/A   Clear
10:53 PM 32.0 °F - 26.1 °F 79% 30.48 in 10.0 mi Calm Calm - N/A   Clear
11:53 PM 30.9 °F - 26.1 °F 82% 30.49 in 10.0 mi Calm Calm - N/A   Partly Cloudy